Milwaukee, WI

5:34 AM CDT on September 26, 2017 (GMT -0500)
Gen Mitchell International

Weather History for KMKE - April, 2013

Change the Weather History Date:

Wednesday, April 24, 2013

  Actual Average Record
Temperature  
Mean Temperature 44 °F 49 °F  
Max Temperature 52 °F 57 °F 87 °F (1990)
Min Temperature 35 °F 40 °F 27 °F (1971)
Degree Days  
Heating Degree Days 21 17  
Month to date heating degree days 586 496  
Since 1 July heating degree days 6386 6405  
Cooling Degree Days 0 0  
Month to date cooling degree days 0 0  
Year to date cooling degree days 0 0  
Moisture  
Dew Point 26 °F    
Average Humidity 56    
Maximum Humidity 85    
Minimum Humidity 26    
Precipitation  
Precipitation 0.00 in 0.10 in 3.01 in (1976)
Month to date precipitation 7.36 2.87  
Year to date precipitation 15.19 8.55  
Snow  
Snow 0.00 in 0.00 in 0.60 in (1980)
Month to date snowfall 0.4 1.9  
Since 1 July snowfall 45.0 46.7  
Snow Depth 0.00 in    
Sea Level Pressure  
Sea Level Pressure 30.01 in    
Wind  
Wind Speed 10 mph (NW)    
Max Wind Speed 17 mph    
Max Gust Speed 23 mph    
Visibility 10 miles    
Events      
T = Trace of Precipitation, MM = Missing Value Source: NWS Daily Summary

Daily Weather History Graph

Daily Weather History Graph

Search for Another Location

Airport or City:

Trip Planner

Search our weather history database for the weather conditions in past years. The results will help you decide how hot, cold, wet, or windy it might be!

Date:

Astronomy

Apr. 24, 2013 Rise Set
Actual Time 5:55 AM CDT 7:44 PM CDT
Civil Twilight 5:25 AM CDT 8:15 PM CDT
Nautical Twilight 4:48 AM CDT 8:52 PM CDT
Astronomical Twilight 4:08 AM CDT 9:32 PM CDT
Moon 6:47 PM CDT (4/24) 5:00 AM CDT (4/24)
Length of Visible Light 14h 50m
Length of Day
13h 49m
Waxing Gibbous, 98% of the Moon is Illuminated
Apr 24
Waxing Gibbous
Apr 25
Full
May 2
Last Quarter
May 9
New
May 17
First Quarter

Hourly Weather History & Observations

Time (CDT) Temp. Windchill Dew Point Humidity Pressure Visibility Wind Dir Wind Speed Gust Speed Precip Events Conditions
12:44 AM 39.2 °F 35.0 °F 33.8 °F 81% 29.95 in 10.0 mi North 5.8 mph 16.1 mph N/A   Overcast
12:52 AM 39.0 °F 33.4 °F 33.1 °F 79% 29.97 in 10.0 mi North 8.1 mph - N/A   Overcast
1:25 AM 37.4 °F 32.1 °F 33.8 °F 87% 29.96 in 10.0 mi NNE 6.9 mph - N/A   Overcast
1:52 AM 37.9 °F 32.1 °F 33.1 °F 83% 29.98 in 10.0 mi NNE 8.1 mph - N/A   Overcast
2:52 AM 37.9 °F 31.5 °F 33.1 °F 83% 29.97 in 10.0 mi NNE 9.2 mph - N/A   Overcast
3:18 AM 37.4 °F 30.8 °F 32.0 °F 81% 29.93 in 10.0 mi North 9.2 mph - N/A   Overcast
3:52 AM 37.0 °F 31.0 °F 30.0 °F 76% 29.97 in 10.0 mi NNW 8.1 mph - N/A   Overcast
4:40 AM 35.6 °F 29.2 °F 28.4 °F 75% 29.97 in 10.0 mi North 8.1 mph - N/A   Mostly Cloudy
4:52 AM 36.0 °F 30.3 °F 28.0 °F 73% 29.99 in 10.0 mi North 6.9 mph - N/A   Overcast
5:52 AM 36.0 °F 31.1 °F 27.0 °F 70% 29.99 in 10.0 mi NNW 5.8 mph - N/A   Overcast
6:52 AM 36.0 °F 29.6 °F 25.0 °F 64% 30.01 in 10.0 mi NNW 8.1 mph - N/A   Overcast
7:52 AM 37.0 °F 31.0 °F 25.0 °F 62% 30.02 in 10.0 mi NNW 8.1 mph - N/A   Mostly Cloudy
8:52 AM 37.9 °F 31.5 °F 26.1 °F 62% 30.02 in 10.0 mi North 9.2 mph - N/A   Mostly Cloudy
9:52 AM 39.0 °F 31.4 °F 25.0 °F 57% 30.03 in 10.0 mi North 12.7 mph 18.4 mph N/A   Mostly Cloudy
10:52 AM 41.0 °F 34.7 °F 24.1 °F 51% 30.04 in 10.0 mi North 10.4 mph - N/A   Mostly Cloudy
11:52 AM 44.1 °F 38.6 °F 21.9 °F 42% 30.03 in 10.0 mi NNW 10.4 mph - N/A   Scattered Clouds
12:52 PM 46.0 °F 41.9 °F 21.9 °F 39% 30.02 in 10.0 mi NW 8.1 mph 19.6 mph N/A   Scattered Clouds
1:52 PM 48.0 °F - 21.9 °F 36% 30.01 in 10.0 mi WNW 11.5 mph 16.1 mph N/A   Scattered Clouds
2:52 PM 50.0 °F - 21.9 °F 33% 30.02 in 10.0 mi NW 13.8 mph - N/A   Scattered Clouds
3:52 PM 51.1 °F - 19.9 °F 29% 30.01 in 10.0 mi WNW 11.5 mph 16.1 mph N/A   Scattered Clouds
4:52 PM 51.1 °F - 18.0 °F 27% 30.01 in 10.0 mi WNW 11.5 mph - N/A   Scattered Clouds
5:52 PM 52.0 °F - 18.0 °F 26% 30.01 in 10.0 mi West 12.7 mph - N/A   Partly Cloudy
6:52 PM 51.1 °F - 18.0 °F 27% 30.02 in 10.0 mi WSW 10.4 mph - N/A   Partly Cloudy
7:52 PM 48.9 °F - 21.9 °F 35% 30.04 in 10.0 mi SW 6.9 mph - N/A   Partly Cloudy
8:52 PM 46.0 °F 41.0 °F 27.0 °F 47% 30.06 in 10.0 mi SW 10.4 mph - N/A   Partly Cloudy
9:52 PM 45.0 °F 40.1 °F 27.0 °F 49% 30.07 in 10.0 mi SW 9.2 mph - N/A   Partly Cloudy
10:52 PM 44.1 °F 38.1 °F 28.0 °F 53% 30.06 in 10.0 mi SW 11.5 mph - N/A   Partly Cloudy
11:52 PM 43.0 °F 36.4 °F 28.9 °F 58% 30.05 in 10.0 mi SSW 12.7 mph - N/A   Scattered Clouds